{"data":{"norad_id":33499,"intl_designator":"2009-002H","name":"KKS-1 (KISEKI)","alt_names":[],"object_type":"PAYLOAD","status":"ACTIVE","operator":null,"country":"JPN","launch_date":"2009-01-23","launch_site_code":"TANSC","launch_vehicle":null,"mission":null,"orbit_class":"UNKNOWN","rcs_meters":0.0853,"size_class":null,"mass_kg":null,"dimensions":null,"purposes":["comms"],"wikipedia_slug":null,"has_3d_model":false,"image_url":null,"decayed_at":null,"tle_current":{"epoch":"2026-09-20T02:34:42.626784Z","epoch_age_seconds":48335,"freshness":"FRESH","line1":"1 33499U 09002H   26263.10743781  .00000870  00000+0  11304-3 0  9995","line2":"2 33499  98.1164 187.0497 0007674 353.4641   6.6471 14.83323401950260","mean_motion":14.83323401,"eccentricity":0.0007674,"inclination_deg":98.1164,"raan_deg":187.0497,"arg_perigee_deg":353.4641,"mean_anomaly_deg":6.6471,"bstar":0.00011304,"rev_number":95026,"period_min":97.079301724034,"perigee_km":613.48387383239,"apogee_km":624.22285464342,"semimajor_km":6996.9903642379,"source":"CELESTRAK","updated_at":"2026-09-20T09:00:45.230415Z"}}}